Weather History for KBFI - January, 2013

Change the Weather History Date:

Tuesday, January 15, 2013

  Actual Average Record
Temperature  
Mean Temperature 40 °F -  
Max Temperature 45 °F 47 °F 58 °F (1974)
Min Temperature 34 °F 37 °F 15 °F (1950)
Degree Days  
Heating Degree Days 26    
Moisture  
Dew Point 30 °F    
Average Humidity 72    
Maximum Humidity 85    
Minimum Humidity 55    
Precipitation  
Precipitation 0.00 in - - ()
Sea Level Pressure  
Sea Level Pressure 30.67 in    
Wind  
Wind Speed 1 mph (North)    
Max Wind Speed 6 mph    
Max Gust Speed -    
Visibility 10 miles    
Events      
Averages and records for this station are not official NWS values.
T = Trace of Precipitation, MM = Missing Value Source: NWS Daily Summary

Daily Weather History Graph

Daily Weather History Graph

Search for Another Location

Airport or City:

Trip Planner

Search our weather history database for the weather conditions in past years. The results will help you decide how hot, cold, wet, or windy it might be!

Date:

Astronomy

Jan. 15, 2013 Rise Set
Actual Time 7:52 AM PST 4:45 PM PST
Civil Twilight 7:17 AM PST 5:20 PM PST
Nautical Twilight 6:39 AM PST 5:58 PM PST
Astronomical Twilight 6:02 AM PST 6:35 PM PST
Moon 9:38 AM PST (1/15) 10:06 PM PST (1/15)
Length of Visible Light 10h 02m
Length of Day
8h 53m
Waxing Crescent, 20% of the Moon is Illuminated
Jan 15
Waxing Crescent
Jan 18
First Quarter
Jan 26
Full
Feb 3
Last Quarter
Feb 9
New

Hourly Weather History & Observations

Time (PST) Temp. Windchill Dew Point Humidity Pressure Visibility Wind Dir Wind Speed Gust Speed Precip Events Conditions
12:53 AM 37.9 °F - 30.9 °F 76% 30.58 in 10.0 mi Calm Calm - N/A   Overcast
1:53 AM 37.9 °F - 30.9 °F 76% 30.60 in 10.0 mi Calm Calm - N/A   Overcast
2:03 AM 37.4 °F - 30.2 °F 75% 30.61 in 10.0 mi Calm Calm - N/A   Overcast
2:53 AM 37.4 °F - 30.2 °F 75% 30.62 in 10.0 mi Calm Calm - N/A   Overcast
3:53 AM 37.0 °F - 30.0 °F 76% 30.63 in 10.0 mi Calm Calm - N/A   Overcast
4:53 AM 35.1 °F 32.2 °F 30.0 °F 82% 30.63 in 10.0 mi ESE 3.5 mph - N/A   Overcast
5:53 AM 35.1 °F - 30.0 °F 82% 30.63 in 10.0 mi Calm Calm - N/A   Overcast
6:53 AM 36.0 °F - 30.0 °F 79% 30.65 in 10.0 mi Calm Calm - N/A   Overcast
7:53 AM 34.0 °F 29.8 °F 28.9 °F 82% 30.67 in 10.0 mi SE 4.6 mph - N/A   Mostly Cloudy
8:53 AM 34.0 °F 28.8 °F 28.9 °F 82% 30.69 in 10.0 mi SE 5.8 mph - N/A   Mostly Cloudy
9:53 AM 37.9 °F - 30.9 °F 76% 30.70 in 10.0 mi Calm Calm - N/A   Scattered Clouds
10:53 AM 42.1 °F 38.4 °F 32.0 °F 67% 30.71 in 8.0 mi NNW 5.8 mph - N/A   Partly Cloudy
11:53 AM 43.0 °F - 32.0 °F 65% 30.69 in 10.0 mi Calm Calm - N/A   Scattered Clouds
12:53 PM 44.1 °F 41.5 °F 32.0 °F 63% 30.69 in 10.0 mi NNW 4.6 mph - N/A   Scattered Clouds
1:53 PM 44.1 °F 41.5 °F 30.9 °F 60% 30.69 in 10.0 mi NW 4.6 mph - N/A   Mostly Cloudy
2:53 PM 45.0 °F 42.6 °F 30.0 °F 56% 30.70 in 10.0 mi NW 4.6 mph - N/A   Mostly Cloudy
3:27 PM 44.6 °F 43.1 °F 30.2 °F 57% 30.69 in 10.0 mi North 3.5 mph - N/A   Scattered Clouds
3:53 PM 44.1 °F - 28.9 °F 55% 30.69 in 10.0 mi Calm Calm - N/A   Scattered Clouds
4:53 PM 42.1 °F - 30.0 °F 62% 30.68 in 10.0 mi Calm Calm - N/A   Clear
5:53 PM 39.9 °F - 30.0 °F 68% 30.68 in 10.0 mi Calm Calm - N/A   Clear
6:53 PM 39.9 °F - 28.9 °F 65% 30.69 in 10.0 mi Calm Calm - N/A   Clear
7:53 PM 39.0 °F 36.8 °F 28.9 °F 67% 30.69 in 10.0 mi North 3.5 mph - N/A   Clear
8:53 PM 35.1 °F - 28.0 °F 76% 30.69 in 10.0 mi Calm Calm - N/A   Clear
9:53 PM 34.0 °F - 28.9 °F 82% 30.68 in 10.0 mi Calm Calm - N/A   Clear
10:53 PM 34.0 °F - 30.0 °F 85% 30.68 in 10.0 mi Calm Calm - N/A   Clear
11:53 PM 34.0 °F - 30.0 °F 85% 30.68 in 10.0 mi Calm Calm - N/A   Clear